STARLINK-4098 (53153 NORAD) Tracking and Keplerian Element Data

This shows tracking and keplerian element data for the satellite.

Feedback or suggestion? Click here.




ElementValue
Catalog53153
NameSTARLINK-4098
Epoch Orbit1184
Epoch Day270.25001157
Epoch Year2022
RAAN58.0854
Inclination53.2173
Eccentricity0.0001295
Argument of Perigee57.8046
Mean Anonmoly287.8984
Mean Motion15.17371396
Decay Rate-0.01071749
L11 53153U 22083X 22270.25001157 -.01071749 00000+0 -57210-1 0 9992
L22 53153 53.2173 58.0854 0001295 57.8046 287.8984 15.17371396 11840

Live tracking and technical data element details for STARLINK-4098 (NORAD 53153). STARLINK-4098 can be tracked NOW for your location showing map with azimuth and elevation plus other details from your city location.

Track the satellite on the map from your city or location and see movement details for azimuth, elevation, latitude, longitude, range, height, and movement on the map or in text.







IsCatalogInMostPopularTable: catalog: 53153, numindb: 7
Update: records affected: 1



GetName: 53153 STARLINK-4098

Hit Count: updated at: Thu, 29 Sep 2022 11:38:17 GMT